Hourly Data Report for June 30, 2022

SANIRAJAK AIRPORT
NUNAVUT
Current Station Operator: NAVCAN

68°46'33.000" N
81°14'33.000" W
9.10 m
2402354
71293
YUX

Download Data

Hourly Data (June 2022)
Hourly Data Report for June 30, 2022
TIME
LST
Temp Definition
°C
Dew Point Definition
°C
Rel Hum Definition
%
Precip. Amount Definition
mm

Wind Dir Definition
10's deg

Wind Spd Definition
km/h
Visibility Definition
km
Stn Press Definition
kPa
Hmdx Definition


Wind Chill Definition


Weather Definition


00:00 3.6 1.6 87 0.0 23 13 16.1 100.99     LegendNANA
01:00 3.1 1.3 88 0.0 21 11 16.1 101.01     LegendNANA
02:00 3.0 2.0 93 0.0 21 9 16.1 101.03     LegendNANA
03:00 2.6 2.2 97 0.0 20 11 16.1 101.05     LegendNANA
04:00 3.6 1.5 86 0.0 21 13 16.1 101.05     LegendNANA
05:00 4.9 1.7 80 0.0 21 13 16.1 101.06     LegendNANA
06:00 6.4 2.1 74 0.0 21 13 16.1 101.06     LegendNANA
07:00 7.4 2.3 70 0.0 21 13 16.1 101.08     LegendNANA
08:00 7.1 2.2 71 0.0 18 17 16.1 101.10     LegendNANA
09:00 8.9 0.8 57 0.0 17 17 16.1 101.11     LegendNANA
10:00 8.4 1.4 61 0.0 18 17 16.1 101.10     LegendNANA
11:00 8.7 1.1 59 0.0 19 17 16.1 101.12     LegendNANA
12:00 9.8 2.4 60 0.0 19 17 16.1 101.13     LegendNANA
13:00 9.1 2.4 63 0.0 17 17 16.1 101.14     LegendNANA
14:00 9.0 2.1 62 0.0 17 21 16.1 101.16     LegendNANA
15:00 8.2 2.0 65 0.0 17 17 14.5 101.17     LegendNANA
16:00 8.2 0.9 60 0.0 17 15 16.1 101.20     LegendNANA
17:00 8.8 1.7 61 0.0 17 15 16.1 101.21     LegendNANA
18:00 7.9 2.4 68 0.0 17 15 16.1 101.23     LegendNANA
19:00 7.9 2.6 69 0.0 17 13 16.1 101.22     LegendNANA
20:00 8.8 3.7 70 0.0 17 8 16.1 101.22     LegendNANA
21:00 7.6 3.5 75 0.0 18 8 4.8 101.22     Haze
22:00 6.6 3.4 80 0.0 21 9 16.1 101.21     LegendNANA
23:00 4.8 4.2 96 0.0 22 9 16.1 101.19     LegendNANA

Notes on Data Quality.

Legend

  • E = Estimated
  • M = Missing
  • NA = Not Available*
  • [empty] = Indicates an unobserved value
Date modified: